Satellite: NOAA-10 Catalog number: 16969 Epoch time: 11159.51814692 Element set: 526 Inclination: 098.6179 deg RA of node: 189.4227 deg Eccentricity: 0.0011322 Arg of perigee: 250.4932 deg Mean anomaly: 109.5036 deg Mean motion: 14.27464356 rev/day Decay rate: 1.17e-06 rev/day^2 Epoch rev: 28641 Checksum: 311
Satellite: NOAA-11 Catalog number: 19531 Epoch time: 11159.29036984 Element set: 527 Inclination: 098.7512 deg RA of node: 246.9215 deg Eccentricity: 0.0010882 Arg of perigee: 209.9895 deg Mean anomaly: 150.0670 deg Mean motion: 14.14918385 rev/day Decay rate: 2.52e-06 rev/day^2 Epoch rev: 17149 Checksum: 319
Satellite: NOAA-12 Catalog number: 21263 Epoch time: 11159.66502639 Element set: 24 Inclination: 098.7511 deg RA of node: 177.5243 deg Eccentricity: 0.0011685 Arg of perigee: 208.1722 deg Mean anomaly: 151.8826 deg Mean motion: 14.25716465 rev/day Decay rate: 1.40e-06 rev/day^2 Epoch rev: 4319 Checksum: 284
Satellite: MET-3/5 Catalog number: 21655 Epoch time: 11158.86574964 Element set: 129 Inclination: 082.5583 deg RA of node: 057.3624 deg Eccentricity: 0.0013335 Arg of perigee: 175.0617 deg Mean anomaly: 185.0634 deg Mean motion: 13.17026745 rev/day Decay rate: 5.1e-07 rev/day^2 Epoch rev: 95249 Checksum: 313
Satellite: MET-2/21 Catalog number: 22782 Epoch time: 11159.50661006 Element set: 116 Inclination: 082.5472 deg RA of node: 329.7649 deg Eccentricity: 0.0023681 Arg of perigee: 120.9671 deg Mean anomaly: 239.3819 deg Mean motion: 13.83658416 rev/day Decay rate: 2.0e-07 rev/day^2 Epoch rev: 89735 Checksum: 314
Satellite: OKEAN-4 Catalog number: 23317 Epoch time: 11159.79827204 Element set: 577 Inclination: 082.5405 deg RA of node: 020.9741 deg Eccentricity: 0.0022789 Arg of perigee: 142.4661 deg Mean anomaly: 217.8147 deg Mean motion: 14.83081239 rev/day Decay rate: 5.98e-06 rev/day^2 Epoch rev: 89930 Checksum: 324
Satellite: NOAA-14 Catalog number: 23455 Epoch time: 11159.68483272 Element set: 510 Inclination: 098.8518 deg RA of node: 242.4046 deg Eccentricity: 0.0008814 Arg of perigee: 308.6873 deg Mean anomaly: 051.3511 deg Mean motion: 14.13822124 rev/day Decay rate: 1.25e-06 rev/day^2 Epoch rev: 84787 Checksum: 300
Satellite: NOAA-15 Catalog number: 25338 Epoch time: 11159.52819077 Element set: 844 Inclination: 098.6535 deg RA of node: 145.7891 deg Eccentricity: 0.0011597 Arg of perigee: 114.9330 deg Mean anomaly: 245.3056 deg Mean motion: 14.24920430 rev/day Decay rate: 5.0e-07 rev/day^2 Epoch rev: 67949 Checksum: 319
Satellite: RESURS Catalog number: 25394 Epoch time: 11159.88775095 Element set: 815 Inclination: 098.3007 deg RA of node: 163.3681 deg Eccentricity: 0.0000353 Arg of perigee: 273.7193 deg Mean anomaly: 086.3947 deg Mean motion: 14.24234527 rev/day Decay rate: 3.0e-08 rev/day^2 Epoch rev: 67112 Checksum: 303
Satellite: FENGYUN1 Catalog number: 25730 Epoch time: 11159.78974543 Element set: 344 Inclination: 098.8161 deg RA of node: 121.1714 deg Eccentricity: 0.0024914 Arg of perigee: 340.8057 deg Mean anomaly: 019.2166 deg Mean motion: 14.08623752 rev/day Decay rate: 7.20e-06 rev/day^2 Epoch rev: 62188 Checksum: 296
Satellite: OKEAN-0 Catalog number: 25860 Epoch time: 11158.92827278 Element set: 0348 Inclination: 097.8844 deg RA of node: 125.6294 deg Eccentricity: 0.0001769 Arg of perigee: 049.5282 deg Mean anomaly: 310.6080 deg Mean motion: 14.73789758 rev/day Decay rate: 2.70e-06 rev/day^2 Epoch rev: 63929 Checksum: 344
Satellite: NOAA-16 Catalog number: 26536 Epoch time: 11159.50660738 Element set: 326 Inclination: 099.1387 deg RA of node: 189.8713 deg Eccentricity: 0.0011311 Arg of perigee: 060.5979 deg Mean anomaly: 299.6334 deg Mean motion: 14.12622477 rev/day Decay rate: 9.4e-07 rev/day^2 Epoch rev: 55213 Checksum: 321
Satellite: NOAA-17 Catalog number: 27453 Epoch time: 11159.39487265 Element set: 315 Inclination: 098.3787 deg RA of node: 199.5087 deg Eccentricity: 0.0011919 Arg of perigee: 170.1157 deg Mean anomaly: 190.0258 deg Mean motion: 14.24279398 rev/day Decay rate: 3.2e-07 rev/day^2 Epoch rev: 46540 Checksum: 332
Satellite: NOAA-18 Catalog number: 28654 Epoch time: 11159.38097154 Element set: 795 Inclination: 098.9956 deg RA of node: 110.5069 deg Eccentricity: 0.0014999 Arg of perigee: 126.9643 deg Mean anomaly: 233.2908 deg Mean motion: 14.11479573 rev/day Decay rate: -1.40e-06 rev/day^2 Epoch rev: 31168 Checksum: 344
Satellite: NOAA-19 Catalog number: 33591 Epoch time: 11159.37621903 Element set: 986 Inclination: 098.8260 deg RA of node: 099.6789 deg Eccentricity: 0.0014323 Arg of perigee: 005.3229 deg Mean anomaly: 354.8085 deg Mean motion: 14.11174119 rev/day Decay rate: 2.88e-06 rev/day^2 Epoch rev: 12014 Checksum: 316
/EX SB KEPS @ AMSAT $ORB11159.M Orbital Elements 11159.MISC
HR AMSAT ORBITAL ELEMENTS FOR MANNED AND MISCELLANEOUS SATELLITES FROM WA5QGD FORT WORTH,TX June 8, 2011 Send Subscribe/unsubscribe to KEPS at http://www.amsat.org/mailman/listinfo/keps BID: ORB11159.M TO ALL RADIO AMATEURS BT
Satellite: HUBBLE Catalog number: 20580 Epoch time: 11159.14414120 Element set: 778 Inclination: 028.4698 deg RA of node: 075.5244 deg Eccentricity: 0.0002924 Arg of perigee: 024.1008 deg Mean anomaly: 335.9773 deg Mean motion: 15.01382238 rev/day Decay rate: 9.33e-06 rev/day^2 Epoch rev: 95829 Checksum: 294
Satellite: ISS Catalog number: 25544 Epoch time: 11160.01603044 Element set: 499 Inclination: 051.6450 deg RA of node: 202.4728 deg Eccentricity: 0.0001007 Arg of perigee: 306.1549 deg Mean anomaly: 127.2024 deg Mean motion: 15.74467854 rev/day Decay rate: 2.4946e-04 rev/day^2 Epoch rev: 71962 Checksum: 277
Satellite: CO-58 Catalog number: 28895 Epoch time: 11159.15653263 Element set: 893 Inclination: 097.9670 deg RA of node: 035.8943 deg Eccentricity: 0.0016685 Arg of perigee: 248.9127 deg Mean anomaly: 111.0286 deg Mean motion: 14.60110827 rev/day Decay rate: 3.50e-06 rev/day^2 Epoch rev: 29892 Checksum: 339
Satellite: FALCON Catalog number: 30776 Epoch time: 11158.95288657 Element set: 0111 Inclination: 035.4336 deg RA of node: 043.1273 deg Eccentricity: 0.0001967 Arg of perigee: 340.8010 deg Mean anomaly: 019.2629 deg Mean motion: 15.04651204 rev/day Decay rate: 2.206e-05 rev/day^2 Epoch rev: 23365 Checksum: 269
Satellite: MAST Catalog number: 31126 Epoch time: 11159.50090575 Element set: 178 Inclination: 097.8954 deg RA of node: 187.2181 deg Eccentricity: 0.0093945 Arg of perigee: 197.1353 deg Mean anomaly: 162.6673 deg Mean motion: 14.53754239 rev/day Decay rate: 3.69e-06 rev/day^2 Epoch rev: 21982 Checksum: 329
Satellite: CAPE1 Catalog number: 31130 Epoch time: 11158.51451029 Element set: 0196 Inclination: 097.8978 deg RA of node: 183.0697 deg Eccentricity: 0.0101755 Arg of perigee: 210.8277 deg Mean anomaly: 148.6942 deg Mean motion: 14.52397111 rev/day Decay rate: 2.77e-06 rev/day^2 Epoch rev: 21923 Checksum: 306
Satellite: COMPASS Catalog number: 32787 Epoch time: 11159.70607319 Element set: 7 Inclination: 097.8478 deg RA of node: 223.6798 deg Eccentricity: 0.0015035 Arg of perigee: 200.3845 deg Mean anomaly: 159.6751 deg Mean motion: 14.82434289 rev/day Decay rate: 1.244e-05 rev/day^2 Epoch rev: 16830 Checksum: 316
Satellite: AAUSAT2 Catalog number: 32788 Epoch time: 11158.59101183 Element set: 0997 Inclination: 097.8485 deg RA of node: 222.8073 deg Eccentricity: 0.0014639 Arg of perigee: 203.7764 deg Mean anomaly: 156.2815 deg Mean motion: 14.82616358 rev/day Decay rate: 1.121e-05 rev/day^2 Epoch rev: 16815 Checksum: 322
Satellite: DO-64 Catalog number: 32789 Epoch time: 11159.68316192 Element set: 14 Inclination: 097.8571 deg RA of node: 224.8663 deg Eccentricity: 0.0014953 Arg of perigee: 198.2568 deg Mean anomaly: 161.8128 deg Mean motion: 14.83089546 rev/day Decay rate: 2.423e-05 rev/day^2 Epoch rev: 16832 Checksum: 341
Satellite: CO-66 Catalog number: 32791 Epoch time: 11159.72095794 Element set: 0 Inclination: 097.8491 deg RA of node: 223.6388 deg Eccentricity: 0.0015340 Arg of perigee: 198.9911 deg Mean anomaly: 161.0720 deg Mean motion: 14.82123008 rev/day Decay rate: 6.82e-06 rev/day^2 Epoch rev: 16825 Checksum: 309
Satellite: RS-30 Catalog number: 32953 Epoch time: 11159.53522138 Element set: 804 Inclination: 082.5002 deg RA of node: 168.1014 deg Eccentricity: 0.0020263 Arg of perigee: 048.6740 deg Mean anomaly: 311.6081 deg Mean motion: 12.43013453 rev/day Decay rate: 1.0e-07 rev/day^2 Epoch rev: 13801 Checksum: 234
Satellite: TACSAT-3 Catalog number: 35001 Epoch time: 11159.54740688 Element set: 611 Inclination: 040.4531 deg RA of node: 225.2247 deg Eccentricity: 0.0021536 Arg of perigee: 146.8115 deg Mean anomaly: 213.4058 deg Mean motion: 15.48896945 rev/day Decay rate: 1.8526e-04 rev/day^2 Epoch rev: 11574 Checksum: 293
Satellite: PHARMSAT Catalog number: 35002 Epoch time: 11159.57671834 Element set: 568 Inclination: 040.4691 deg RA of node: 222.7509 deg Eccentricity: 0.0023561 Arg of perigee: 155.3625 deg Mean anomaly: 204.8321 deg Mean motion: 15.48508358 rev/day Decay rate: 1.4843e-04 rev/day^2 Epoch rev: 11577 Checksum: 297
Satellite: HAWKSAT1 Catalog number: 35003 Epoch time: 11158.45809352 Element set: 0646 Inclination: 040.4533 deg RA of node: 202.1373 deg Eccentricity: 0.0020218 Arg of perigee: 167.4036 deg Mean anomaly: 192.7297 deg Mean motion: 15.64757653 rev/day Decay rate: 7.3679e-04 rev/day^2 Epoch rev: 11590 Checksum: 298
Satellite: CP6 Catalog number: 35004 Epoch time: 11159.41172161 Element set: 648 Inclination: 040.4539 deg RA of node: 187.9522 deg Eccentricity: 0.0020665 Arg of perigee: 180.2978 deg Mean anomaly: 179.7776 deg Mean motion: 15.71373053 rev/day Decay rate: 1.07909e-03 rev/day^2 Epoch rev: 11613 Checksum: 312
